KO5S Weather Reports


time (UTC)temp
C
wind
direction
speed
KPH
gust
KPH
rain 1hr
cm
rain 24hr
cm
rain mn
cm
humidity
%
barometer
mb
20260906040016 25 0.0 0.0 0.00 0.00 0.00 92 1008.3
20260906035015 25 0.0 0.0 0.00 0.00 0.00 92 1008.3
20260906034016 25 0.0 0.0 0.00 0.00 0.00 92 1008.2
20260906033015 25 0.0 0.0 0.00 0.00 0.00 92 1008.4
20260906032015 25 0.0 0.0 0.00 0.00 0.00 92 1008.3
20260906031016 25 0.0 0.0 0.00 0.00 0.00 92 1008.2
20260906030015 25 0.0 0.0 0.00 0.00 0.00 91 1008.0
20260906025018 25 0.0 0.0 0.00 0.00 0.00 91 1007.8
20260906024015 25 0.0 0.0 0.00 0.00 0.00 91 1007.7
20260906023015 25 0.0 0.0 0.00 0.00 0.00 91 1007.5
20260906022015 26 0.0 0.0 0.00 0.00 0.00 90 1007.3
20260906021015 26 0.0 0.0 0.00 0.00 0.00 90 1007.2
20260906020020 26 0.0 0.0 0.00 0.00 0.00 90 1007.1
20260906015015 26 0.0 0.0 0.00 0.00 0.00 90 1007.0
20260906014015 26 0.0 0.0 0.00 0.00 0.00 90 1007.0
20260906013017 26 0.0 0.0 0.00 0.00 0.00 89 1007.0
20260906012036 26 0.0 0.0 0.00 0.00 0.00 89 1007.2
20260906011015 27 0.0 0.0 0.00 0.00 0.00 89 1007.3
20260906010015 27 0.0 0.0 0.00 0.00 0.00 88 1007.2
20260906005016 27 0.0 0.0 0.00 0.00 0.00 88 1007.3
20260906004015 27 0.0 0.0 0.00 0.00 0.00 88 1007.3
20260906003018 28 0.0 0.0 0.00 0.00 0.00 87 1007.2
20260906002015 28 0.0 0.0 0.00 0.00 0.00 86 1007.2
20260906001058 28 0.0 0.0 0.00 0.00 0.00 85 1007.3
20260906000016 29 0.0 0.0 0.00 0.00 0.00 85 1007.2
20260905235015 29 0.0 0.0 0.00 0.00 0.00 84 1007.1
20260905234018 29 0.0 0.0 0.00 0.00 0.00 83 1007.2
20260905233015 30 0.0 0.0 0.00 0.00 0.00 82 1007.2
20260905232015 30 0.0 0.0 0.00 0.00 0.00 82 1007.2
20260905231016 30 0.0 0.0 0.00 0.00 0.00 82 1007.3
20260905230015 30 0.0 6.4 0.00 0.00 0.00 83 1007.2
20260905225015 30 188 0.0 6.4 0.00 0.00 0.00 84 1007.1
20260905224015 29 0.0 0.0 0.00 0.00 0.00 84 1007.1
20260905223015 29 0.0 0.0 0.00 0.00 0.00 84 1007.1
20260905222015 29 0.0 0.0 0.00 0.00 0.00 84 1007.2
20260905221017 29 0.0 0.0 0.00 0.00 0.00 84 1007.4
20260905220040 29 0.0 0.0 0.00 0.00 0.00 85 1007.3
20260905215015 29 0.0 0.0 0.00 0.00 0.00 84 1007.2
20260905214015 29 0.0 0.0 0.00 0.00 0.00 83 1007.3
20260905213015 29 0.0 0.0 0.00 0.00 0.00 83 1007.3
20260905212018 30 0.0 0.0 0.00 0.00 0.00 82 1007.6
20260905211015 30 0.0 1.6 0.00 0.00 0.00 80 1007.7
20260905210020 30 304 0.0 1.6 0.00 0.00 0.00 78 1007.5
20260905205017 31 0.0 11.3 0.00 0.00 0.00 77 1007.6
20260905204018 31 300 3.2 11.3 0.00 0.00 0.00 79 1007.7
20260905203020 32 345 0.0 4.8 0.00 0.00 0.00 80 1007.6
20260905202017 31 73 0.0 1.6 0.00 0.00 0.00 81 1007.6
20260905201017 31 0.0 8.0 0.00 0.00 0.00 80 1007.6
20260905200016 31 172 1.6 9.7 0.00 0.00 0.00 80 1007.7
20260905195017 31 182 1.6 9.7 0.00 0.00 0.00 81 1007.9
20260905194036 30 210 0.0 6.4 0.00 0.00 0.00 83 1008.2
20260905193015 30 0.0 0.0 0.00 0.00 0.00 85 1008.4
20260905192038 29 0.0 0.0 0.00 0.00 0.00 85 1008.5
20260905191018 29 0.0 0.0 0.00 0.00 0.00 84 1008.7
20260905190017 29 0.0 9.7 0.00 0.00 0.00 84 1008.8
20260905185017 29 166 3.2 9.7 0.00 0.00 0.00 84 1008.9
20260905184017 29 158 1.6 9.7 0.00 0.00 0.00 84 1009.1
20260905183017 28 171 3.2 9.7 0.00 0.00 0.00 84 1009.0
20260905182021 28 157 3.2 12.9 0.00 0.00 0.00 84 1009.1
20260905181019 29 148 1.6 12.9 0.00 0.00 0.00 83 1009.2
20260905180020 31 157 3.2 12.9 0.00 0.00 0.00 79 1009.3
20260905175018 31 0.0 0.0 0.00 2.03 0.00 77 1009.3
20260905174017 32 0.0 11.3 0.00 2.03 0.00 74 1009.3
20260905173017 32 333 1.6 11.3 0.00 2.03 0.00 75 1009.3
20260905172017 32 341 1.6 6.4 0.00 2.03 0.00 76 1009.4
20260905171016 32 320 0.0 9.7 0.00 2.03 0.00 78 1009.5
20260905170018 31 332 1.6 9.7 0.00 2.03 0.00 78 1009.6
20260905165038 30 304 0.0 9.7 0.00 2.03 0.00 79 1009.7
20260905164016 30 359 1.6 9.7 0.00 2.03 0.00 79 1009.8
20260905163101 31 314 0.0 12.9 0.00 2.03 0.00 79 1009.8
20260905162017 31 30 1.6 12.9 0.00 2.03 0.00 81 1009.8
20260905161018 30 316 1.6 16.1 0.00 2.03 0.00 81 1009.9
20260905160017 31 302 3.2 16.1 0.00 2.03 0.00 78 1009.9
20260905155037 31 0.0 6.4 0.00 2.03 0.00 77 1010.0
20260905154017 31 36 0.0 6.4 0.00 2.03 0.00 79 1009.9
20260905153016 31 304 0.0 6.4 0.00 2.03 0.00 80 1009.9
20260905152016 31 184 0.0 6.4 0.00 2.03 0.00 81 1009.9
20260905151041 30 0.0 0.0 0.00 2.03 0.00 83 1010.0
20260905150017 29 0.0 0.0 0.00 2.03 0.00 85 1010.0
20260905145019 28 0.0 0.0 0.00 2.08 0.00 89 1010.0
20260905144017 28 0.0 0.0 0.00 2.08 0.00 92 1010.0
20260905143016 27 0.0 0.0 0.00 2.08 0.00 94 1010.0
20260905142017 27 0.0 0.0 0.00 2.08 0.00 95 1010.0
20260905141037 27 0.0 0.0 0.00 2.08 0.00 95 1010.1
20260905140017 26 0.0 0.0 0.00 2.08 0.00 95 1010.1
20260905135019 26 0.0 0.0 0.00 2.08 0.00 95 1010.1
20260905134016 25 0.0 0.0 0.00 2.08 0.00 95 1010.0
20260905133018 25 0.0 0.0 0.00 2.08 0.00 95 1009.9
20260905132016 25 0.0 0.0 0.00 2.08 0.00 95 1009.9
20260905131041 24 0.0 0.0 0.00 2.08 0.00 95 1009.9
20260905130019 23 0.0 0.0 0.00 2.08 0.00 95 1009.8
20260905125017 23 0.0 0.0 0.00 2.08 0.00 95 1009.8
20260905124016 23 0.0 0.0 0.00 2.08 0.00 94 1009.8
20260905123017 23 0.0 0.0 0.00 2.08 0.00 95 1009.7
20260905122022 23 0.0 0.0 0.00 2.08 0.00 95 1009.7
20260905121016 23 0.0 0.0 0.00 2.08 0.00 94 1009.6
20260905120016 23 0.0 0.0 0.00 2.08 0.00 94 1009.6
20260905115017 23 0.0 0.0 0.00 2.08 0.00 94 1009.5
20260905114016 23 0.0 0.0 0.00 2.08 0.00 94 1009.4
20260905113016 23 0.0 0.0 0.00 2.08 0.00 94 1009.3
20260905112016 23 0.0 0.0 0.00 2.08 0.00 94 1009.3
20260905111016 23 0.0 0.0 0.00 2.08 0.00 94 1009.2
20260905110017 23 0.0 0.0 0.00 2.08 0.00 94 1009.3
20260905105016 23 0.0 0.0 0.00 2.08 0.00 94 1009.3
20260905104020 23 0.0 0.0 0.00 2.08 0.00 94 1009.4
20260905103019 23 0.0 0.0 0.00 2.08 0.00 94 1009.4
20260905102017 23 0.0 0.0 0.00 2.08 0.00 94 1009.4
20260905101016 23 0.0 0.0 0.00 2.08 0.00 94 1009.2
20260905100037 23 0.0 0.0 0.00 2.08 0.00 94 1009.3
20260905095016 23 0.0 0.0 0.00 2.08 0.00 94 1009.3
20260905094018 23 0.0 0.0 0.00 2.08 0.00 94 1009.2
20260905093019 23 0.0 0.0 0.00 2.08 0.00 94 1009.1
20260905092016 23 0.0 0.0 0.00 2.08 0.00 94 1009.2
20260905091016 23 0.0 0.0 0.00 2.08 0.00 94 1009.1
20260905090017 23 0.0 0.0 0.00 2.08 0.00 94 1009.1
20260905085016 23 0.0 0.0 0.00 2.08 0.00 94 1009.1
20260905084037 23 0.0 0.0 0.00 2.08 0.00 94 1009.1
20260905083016 23 0.0 0.0 0.00 2.08 0.00 94 1009.0
20260905082016 23 0.0 0.0 0.00 2.08 0.00 94 1009.0
20260905081017 23 0.0 0.0 0.00 2.08 0.00 94 1009.0
20260905080017 23 0.0 0.0 0.00 2.08 0.00 94 1009.0
20260905075041 22 0.0 0.0 0.00 2.08 0.00 94 1009.1
20260905074021 23 0.0 0.0 0.00 2.08 0.00 94 1009.0
20260905073016 23 0.0 0.0 0.00 2.08 0.00 94 1009.0
20260905072018 23 0.0 0.0 0.00 2.08 0.00 94 1009.0
20260905071018 23 0.0 0.0 0.00 2.08 0.00 94 1008.9
20260905070017 23 0.0 0.0 0.00 2.08 0.00 93 1008.8
20260905065019 23 0.0 0.0 0.00 2.08 0.00 94 1008.8
20260905064016 23 0.0 0.0 0.00 2.08 0.00 94 1008.7
20260905063019 23 0.0 0.0 0.00 2.08 0.00 94 1008.7
20260905062016 23 0.0 0.0 0.00 2.08 0.00 93 1008.8
20260905061018 23 0.0 0.0 0.00 2.08 0.00 93 1008.8
20260905060018 23 0.0 0.0 0.00 2.08 0.00 93 1008.8
20260905055018 23 0.0 0.0 0.00 2.08 0.00 93 1008.8
20260905054017 23 0.0 0.0 0.00 2.08 0.00 93 1008.9
20260905053016 23 0.0 0.0 0.00 2.08 0.00 93 1009.1
20260905052036 23 0.0 0.0 0.00 2.08 0.00 93 1009.1
20260905051039 23 0.0 0.0 0.00 2.08 0.00 93 1009.1
20260905050019 23 0.0 0.0 0.00 2.08 2.08 93 1009.2
20260905045015 23 0.0 0.0 0.00 2.08 2.08 93 1009.3
20260905044015 23 0.0 0.0 0.00 2.08 2.08 93 1009.4
20260905043017 23 0.0 0.0 0.00 2.08 2.08 93 1009.5
20260905042016 23 0.0 0.0 0.00 2.08 2.08 93 1009.6
20260905041015 23 0.0 0.0 0.00 2.08 2.08 93 1009.6